User: anonymous   Login
Location: La Vergne
(36.0160°N, 86.5820°W)
Time: 00:17:49
(UTC-05:00)
Language:

Cosmos 1703 Rocket - Orbit

View from above orbital plane
View from above orbital plane
View from above satellite
View from above satellite

Ground track
Ground track

The orbit data is extracted from the following two-line orbital elements,

1 16263U 85108B   18109.78072778  .00000085  00000-0  74392-5 0  9998
2 16263  82.5061 186.6925 0021443  60.9298  78.4641 14.83028455749827
Epoch (UTC): 19 April 2018 18:44:14
Eccentricity: 0.0021443
inclination: 82.5061°
perigee height: 605 km
apogee height: 635 km
right ascension of ascending node: 186.6925°
argument of perigee: 60.9298°
revolutions per day: 14.83028455
mean anomaly at epoch: 78.4641°
orbit number at epoch: 74982

The dashed part of the orbit path shows where the satellite is in the earth's shadow,  

DLR